COSMOS 2009

Satellite information

Favourite Embed

Satellite Type and Status

PAYLOADIN ORBIT

Key statistics

Satellite COSMOS 2009 at a glance.

Uptime

13256

Days in orbit

Revolutions

≈ 12.6

Per day

Orbit

LEO

Low Earth Orbit

Inclination

74.0

Latest

Satellite identification and parameters

Extended collection of information and parameters for COSMOS 2009.

Object identification

Identified? True

Debris? False

Object name: COSMOS 2009

International designator: 1989-025B

Object number (NORAD): 19903

Object ID (CCSDS): 19903

Country: COMMONWEALTH OF INDEPENDENT STATES (CIS)

Current information (Y/N): Y

RCS size: MEDIUM

Orbital parameters

Period: 114.655 minutes

Inclination: 74.0072 deg

SMA: 7817.875 km

Apoapsis: 1471.699 km

Periapsis: 1407.782 km

RAAN: 206.0719 deg

Eccentricy: 0.0040879

Argument of periapsis: 154.2169 deg

Mean anomaly: 14.2299 deg

Mean motion: 12.55942211 rev/day

Mean motion (dot): 0.00000017 rev/day2

B* drag term: 0.00019871 1/REarth

Two-line elements (TLE)

Creation date: July 8, 2025, 5:26 p.m.

Reference frame: TEME

Reference center: EARTH

Epoch: July 8, 2025, 12:51 p.m. UTC

TLE line 0: 0 COSMOS 2009

TLE line 1: 1 19903U 89025B 25189.53592854 .00000017 00000-0 19871-3 0 9999

TLE line 2: 2 19903 74.0072 206.0719 0040879 154.2169 14.2299 12.55942211663818

Live tracking on map

Real-time ground track for satellite COSMOS 2009.

In-orbit conjunctions

There are no conjunctions computed for COSMOS 2009, at the moment. Check back to stay up to date, as we update our databases every day.

Go to all conjunctions

Associated space launch

Military communications satellites

COSMOS 2009 was lifted into orbit during the mission ‘Kosmos-3M | Strela-1M 337-344’, on board a Kosmos-3M space rocket.

The launch took place on March 24, 1989, 1:38 p.m. from 132/2.

For more information about the launch, click the button.

Launch to space Kosmos-3M | Strela-1M 337-344
Kosmos-3M | Strela-1M 337-344

Agency: N/A

Status: Launch Successful

Launch date: March 24, 1989, 1:38 p.m. UTC

Rocket: Kosmos-3M

Launch pad: 132/2

Location: Plesetsk Cosmodrome, Russian Federation

...

Latest news about this satellite

There are no fresh news available about this satellite. Check back as we update our databases every day.


Newsletter sign-up

Weekly statistics, charts and insights to help you stay on top of the space industry.